TimeCST,TemperatureF,Dew PointF,Humidity,Sea Level PressureIn,VisibilityMPH,Wind Direction,Wind SpeedMPH,Gust SpeedMPH,PrecipitationIn,Events,Conditions,WindDirDegrees,DateUTC
12:53 AM,1.0,-2.0,87,30.20,10.0,WNW,4.6,-,N/A,,Clear,290,2014-02-03 06:53:00
1:53 AM,1.0,-0.9,91,30.20,10.0,NNW,8.1,-,N/A,,Clear,330,2014-02-03 07:53:00
2:53 AM,-2.9,-7.1,82,30.24,10.0,Calm,Calm,-,N/A,,Clear,0,2014-02-03 08:53:00
3:53 AM,-2.9,-5.1,90,30.24,10.0,Calm,Calm,-,N/A,,Clear,0,2014-02-03 09:53:00
4:53 AM,-4.0,-7.1,87,30.24,10.0,Calm,Calm,-,N/A,,Clear,0,2014-02-03 10:53:00
5:53 AM,-5.1,-9.0,83,30.26,10.0,NNW,3.5,-,N/A,,Clear,330,2014-02-03 11:53:00
6:53 AM,-4.0,-7.1,87,30.26,10.0,Calm,Calm,-,N/A,,Clear,0,2014-02-03 12:53:00
7:53 AM,-7.1,-11.0,83,30.28,10.0,NNE,3.5,-,N/A,,Clear,30,2014-02-03 13:53:00
8:53 AM,-2.9,-5.1,90,30.29,10.0,Calm,Calm,-,N/A,,Clear,0,2014-02-03 14:53:00
9:53 AM,-0.9,-2.9,91,30.32,10.0,Calm,Calm,-,N/A,,Clear,0,2014-02-03 15:53:00
10:53 AM,3.0,1.0,91,30.33,10.0,Calm,Calm,-,N/A,,Clear,0,2014-02-03 16:53:00
11:53 AM,8.1,3.9,83,30.32,10.0,Calm,Calm,-,N/A,,Clear,0,2014-02-03 17:53:00
12:53 PM,12.0,3.9,70,30.31,10.0,NE,4.6,-,N/A,,Partly Cloudy,40,2014-02-03 18:53:00
1:53 PM,12.0,1.9,64,30.30,10.0,NNE,8.1,-,N/A,,Mostly Cloudy,20,2014-02-03 19:53:00
2:53 PM,12.0,3.0,67,30.29,10.0,NE,9.2,-,N/A,,Overcast,40,2014-02-03 20:53:00
3:53 PM,12.0,1.9,64,30.32,10.0,North,6.9,-,N/A,,Overcast,10,2014-02-03 21:53:00
4:53 PM,10.9,1.9,67,30.32,10.0,NE,9.2,-,N/A,,Overcast,40,2014-02-03 22:53:00
5:53 PM,10.0,1.9,70,30.33,10.0,North,9.2,-,N/A,,Overcast,10,2014-02-03 23:53:00
6:53 PM,10.0,3.0,73,30.36,10.0,NE,5.8,-,N/A,,Overcast,50,2014-02-04 00:53:00
7:53 PM,10.0,3.0,73,30.38,10.0,NE,3.5,-,N/A,,Overcast,40,2014-02-04 01:53:00
8:53 PM,8.1,3.0,80,30.39,10.0,Calm,Calm,-,N/A,,Overcast,0,2014-02-04 02:53:00
9:53 PM,6.1,3.0,87,30.41,5.0,Calm,Calm,-,0.00,Snow,Light Snow,0,2014-02-04 03:53:00
10:51 PM,6.8,1.4,79,30.29,2.0,Calm,Calm,-,0.00,Snow,Light Snow,0,2014-02-04 04:51:00
10:53 PM,6.1,1.9,83,30.42,2.5,Calm,Calm,-,0.00,Snow,Light Snow,0,2014-02-04 04:53:00
11:00 PM,5.0,1.9,87,30.29,4.0,NNW,4.6,-,0.00,Snow,Light Snow,330,2014-02-04 05:00:00
11:29 PM,7.0,3.9,87,30.30,4.0,NNW,5.8,-,0.00,Snow,Light Snow,330,2014-02-04 05:29:00
11:43 PM,7.0,5.0,92,30.30,2.5,Calm,Calm,-,0.00,Snow,Light Snow,0,2014-02-04 05:43:00
11:53 PM,7.0,5.0,92,30.43,3.0,Calm,Calm,-,0.00,Snow,Light Snow,0,2014-02-04 05:53:00